| time (UTC) | temp C | wind direction | speed KPH | gust KPH | rain 1hr cm | rain 24hr cm | rain mn cm | humidity % | barometer mb |
| 20260505181537 | 26 | 236 | 27.4 | 41.8 | 0.00 | 0.00 | 0.00 | 41 | 1006.8 |
| 20260505180517 | 25 | 234 | 30.6 | 48.3 | 0.00 | 0.00 | 0.00 | 40 | 1006.7 |
| 20260505175517 | 25 | 223 | 29.0 | 48.3 | 0.00 | 0.00 | 0.00 | 41 | 1006.9 |
| 20260505174517 | 25 | 227 | 30.6 | 53.1 | 0.00 | 0.00 | 0.00 | 43 | 1007.0 |
| 20260505173537 | 25 | 220 | 33.8 | 49.9 | 0.00 | 0.00 | 0.00 | 42 | 1007.2 |
| 20260505172515 | 25 | 220 | 29.0 | 46.7 | 0.00 | 0.00 | 0.00 | 43 | 1007.2 |
| 20260505171517 | 25 | 208 | 25.7 | 51.5 | 0.00 | 0.00 | 0.00 | 44 | 1007.2 |
| 20260505170537 | 25 | 218 | 29.0 | 49.9 | 0.00 | 0.00 | 0.00 | 46 | 1007.4 |
| 20260505165517 | 25 | 233 | 22.5 | 38.6 | 0.00 | 0.00 | 0.00 | 50 | 1007.4 |
| 20260505164537 | 25 | 228 | 25.7 | 38.6 | 0.00 | 0.00 | 0.00 | 49 | 1007.6 |
| 20260505163517 | 24 | 229 | 24.1 | 33.8 | 0.00 | 0.00 | 0.00 | 49 | 1007.7 |
| 20260505162517 | 24 | 237 | 22.5 | 33.8 | 0.00 | 0.00 | 0.00 | 51 | 1007.8 |
| 20260505161537 | 23 | 226 | 20.9 | 32.2 | 0.00 | 0.00 | 0.00 | 53 | 1007.9 |
| 20260505160517 | 23 | 224 | 20.9 | 30.6 | 0.00 | 0.00 | 0.00 | 54 | 1007.9 |
| 20260505152517 | 22 | 231 | 14.5 | 29.0 | 0.00 | 0.00 | 0.00 | 57 | 1008.3 |
| 20260505151517 | 22 | 225 | 14.5 | 27.4 | 0.00 | 0.00 | 0.00 | 59 | 1008.4 |
| 20260505150517 | 21 | 225 | 14.5 | 27.4 | 0.00 | 0.00 | 0.00 | 60 | 1008.5 |
| 20260505140518 | 19 | 231 | 16.1 | 20.9 | 0.00 | 0.00 | 0.00 | 65 | 1008.9 |
| 20260505124516 | 16 | 223 | 8.0 | 12.9 | 0.00 | 0.00 | 0.00 | 72 | 1009.4 |
| 20260505123537 | 16 | 238 | 6.4 | 9.7 | 0.00 | 0.00 | 0.00 | 73 | 1009.4 |
| 20260505122517 | 15 | 236 | 6.4 | 9.7 | 0.00 | 0.00 | 0.00 | 73 | 1009.1 |
| 20260505121517 | 15 | 241 | 6.4 | 9.7 | 0.00 | 0.00 | 0.00 | 73 | 1009.2 |
| 20260505120537 | 15 | 296 | 3.2 | 4.8 | 0.00 | 0.00 | 0.00 | 72 | 1009.1 |
| 20260505115517 | 15 | 297 | 1.6 | 3.2 | 0.00 | 0.00 | 0.00 | 73 | 1009.0 |
| 20260505114517 | 15 | 296 | 1.6 | 4.8 | 0.00 | 0.00 | 0.00 | 73 | 1009.1 |
| 20260505113517 | 15 | 296 | 3.2 | 4.8 | 0.00 | 0.00 | 0.00 | 73 | 1009.1 |
| 20260505112517 | 14 | 296 | 3.2 | 3.2 | 0.00 | 0.00 | 0.00 | 72 | 1009.0 |
| 20260505111517 | 13 | 297 | 0.0 | 3.2 | 0.00 | 0.00 | 0.00 | 72 | 1008.8 |
| 20260505110517 | 13 | 297 | 1.6 | 4.8 | 0.00 | 0.00 | 0.00 | 70 | 1008.8 |
| 20260505101517 | 11 | 0.0 | 0.0 | 0.00 | 0.00 | 0.00 | 57 | 1008.3 | |
| 20260505100517 | 11 | 0.0 | 1.6 | 0.00 | 0.00 | 0.00 | 57 | 1008.2 | |
| 20260505095517 | 11 | 0.0 | 0.0 | 0.00 | 0.00 | 0.00 | 59 | 1008.2 | |
| 20260505094517 | 12 | 0.0 | 0.0 | 0.00 | 0.00 | 0.00 | 64 | 1008.2 | |
| 20260505093537 | 12 | 299 | 0.0 | 1.6 | 0.00 | 0.00 | 0.00 | 66 | 1008.2 |
| 20260505092517 | 12 | 300 | 0.0 | 1.6 | 0.00 | 0.00 | 0.00 | 66 | 1008.1 |
| 20260505091516 | 12 | 0.0 | 0.0 | 0.00 | 0.00 | 0.00 | 69 | 1008.1 | |
| 20260505090517 | 12 | 0.0 | 0.0 | 0.00 | 0.00 | 0.00 | 71 | 1008.1 | |
| 20260505085536 | 13 | 298 | 1.6 | 3.2 | 0.00 | 0.00 | 0.00 | 73 | 1008.1 |
| 20260505084517 | 13 | 0.0 | 0.0 | 0.00 | 0.00 | 0.00 | 73 | 1008.1 | |
| 20260505083517 | 13 | 300 | 1.6 | 4.8 | 0.00 | 0.00 | 0.00 | 73 | 1008.2 |
| 20260505082517 | 13 | 300 | 0.0 | 4.8 | 0.00 | 0.00 | 0.00 | 74 | 1008.2 |
| 20260505081536 | 13 | 300 | 1.6 | 4.8 | 0.00 | 0.00 | 0.00 | 74 | 1008.4 |
| 20260505080517 | 13 | 300 | 0.0 | 3.2 | 0.00 | 0.00 | 0.00 | 74 | 1008.1 |
| 20260505075517 | 13 | 300 | 1.6 | 6.4 | 0.00 | 0.00 | 0.00 | 74 | 1008.3 |
| 20260505074517 | 13 | 299 | 3.2 | 9.7 | 0.00 | 0.00 | 0.00 | 73 | 1008.3 |
| 20260505073536 | 13 | 276 | 3.2 | 6.4 | 0.00 | 0.00 | 0.00 | 73 | 1008.0 |
| 20260505072537 | 14 | 201 | 1.6 | 3.2 | 0.00 | 0.00 | 0.00 | 71 | 1007.9 |
| 20260505071517 | 15 | 204 | 3.2 | 11.3 | 0.00 | 0.00 | 0.00 | 68 | 1008.1 |
| 20260505070517 | 14 | 260 | 6.4 | 9.7 | 0.00 | 0.00 | 0.00 | 69 | 1008.1 |
| 20260505065517 | 14 | 281 | 1.6 | 4.8 | 0.00 | 0.00 | 0.00 | 70 | 1008.2 |
| 20260505064517 | 14 | 281 | 1.6 | 3.2 | 0.00 | 0.00 | 0.00 | 70 | 1008.2 |
| 20260505063517 | 13 | 281 | 0.0 | 3.2 | 0.00 | 0.00 | 0.00 | 70 | 1008.2 |
| 20260505062537 | 13 | 281 | 1.6 | 3.2 | 0.00 | 0.00 | 0.00 | 71 | 1008.1 |
| 20260505061517 | 13 | 281 | 0.0 | 3.2 | 0.00 | 0.00 | 0.00 | 70 | 1008.1 |
| 20260505060517 | 13 | 281 | 3.2 | 4.8 | 0.00 | 0.00 | 0.00 | 70 | 1008.2 |
| 20260505055517 | 13 | 281 | 3.2 | 4.8 | 0.00 | 0.00 | 0.00 | 68 | 1008.2 |
| 20260505054516 | 15 | 281 | 3.2 | 3.2 | 0.00 | 0.00 | 0.00 | 65 | 1008.2 |
| 20260505053516 | 15 | 281 | 3.2 | 4.8 | 0.00 | 0.00 | 0.00 | 63 | 1008.2 |
| 20260505052517 | 15 | 281 | 3.2 | 6.4 | 0.00 | 0.00 | 0.00 | 62 | 1008.2 |
| 20260505051517 | 16 | 281 | 4.8 | 6.4 | 0.00 | 0.00 | 0.00 | 61 | 1008.2 |
| 20260505050516 | 16 | 281 | 3.2 | 4.8 | 0.00 | 0.00 | 0.00 | 61 | 1008.2 |
| 20260505041516 | 15 | 281 | 0.0 | 4.8 | 0.00 | 0.00 | 0.00 | 62 | 1007.9 |
| 20260505040516 | 15 | 281 | 3.2 | 4.8 | 0.00 | 0.00 | 0.00 | 62 | 1008.0 |
| 20260505035515 | 14 | 281 | 4.8 | 4.8 | 0.00 | 0.00 | 0.00 | 64 | 1007.9 |
| 20260505034515 | 13 | 281 | 3.2 | 4.8 | 0.00 | 0.00 | 0.00 | 66 | 1007.7 |
| 20260505033515 | 13 | 281 | 1.6 | 3.2 | 0.00 | 0.00 | 0.00 | 64 | 1007.8 |
| 20260505032515 | 14 | 281 | 0.0 | 3.2 | 0.00 | 0.00 | 0.00 | 62 | 1007.7 |
| 20260505031515 | 14 | 281 | 3.2 | 4.8 | 0.00 | 0.00 | 0.00 | 63 | 1007.7 |
| 20260505030535 | 14 | 281 | 0.0 | 1.6 | 0.00 | 0.00 | 0.00 | 63 | 1007.8 |
| 20260505025515 | 14 | 281 | 0.0 | 3.2 | 0.00 | 0.00 | 0.00 | 63 | 1007.8 |
| 20260505024515 | 14 | 281 | 3.2 | 4.8 | 0.00 | 0.00 | 0.00 | 62 | 1007.8 |
| 20260505023515 | 15 | 281 | 3.2 | 3.2 | 0.00 | 0.00 | 0.00 | 60 | 1007.9 |
| 20260505022515 | 15 | 0.0 | 0.0 | 0.00 | 0.00 | 0.00 | 60 | 1007.9 | |
| 20260505021515 | 15 | 281 | 0.0 | 3.2 | 0.00 | 0.00 | 0.00 | 59 | 1008.0 |
| 20260505020515 | 16 | 281 | 1.6 | 3.2 | 0.00 | 0.00 | 0.00 | 57 | 1008.1 |
| 20260505015515 | 15 | 281 | 0.0 | 3.2 | 0.00 | 0.00 | 0.00 | 60 | 1008.0 |
| 20260505014515 | 15 | 281 | 3.2 | 3.2 | 0.00 | 0.00 | 0.00 | 59 | 1008.0 |
| 20260505013515 | 16 | 239 | 3.2 | 6.4 | 0.00 | 0.00 | 0.00 | 57 | 1008.0 |
| 20260505012515 | 16 | 194 | 3.2 | 4.8 | 0.00 | 0.00 | 0.00 | 55 | 1007.9 |
| 20260505011515 | 17 | 195 | 3.2 | 6.4 | 0.00 | 0.00 | 0.00 | 54 | 1007.7 |
| 20260505010515 | 17 | 194 | 3.2 | 4.8 | 0.00 | 0.00 | 0.00 | 54 | 1007.7 |
| 20260505005515 | 17 | 205 | 4.8 | 6.4 | 0.00 | 0.00 | 0.00 | 55 | 1007.5 |
| 20260505004515 | 17 | 206 | 6.4 | 9.7 | 0.00 | 0.00 | 0.00 | 54 | 1007.4 |
| 20260505003515 | 17 | 197 | 6.4 | 11.3 | 0.00 | 0.00 | 0.00 | 53 | 1007.3 |
| 20260505002535 | 17 | 194 | 8.0 | 12.9 | 0.00 | 0.00 | 0.00 | 52 | 1007.3 |
| 20260505001535 | 18 | 186 | 9.7 | 17.7 | 0.00 | 0.00 | 0.00 | 51 | 1007.2 |
| 20260505000515 | 18 | 186 | 9.7 | 17.7 | 0.00 | 0.00 | 0.00 | 50 | 1007.1 |
| 20260504235515 | 18 | 189 | 9.7 | 19.3 | 0.00 | 0.00 | 0.00 | 49 | 1007.0 |
| 20260504234515 | 19 | 176 | 11.3 | 19.3 | 0.00 | 0.00 | 0.00 | 49 | 1006.9 |
| 20260504233535 | 20 | 174 | 8.0 | 17.7 | 0.00 | 0.00 | 0.00 | 48 | 1006.9 |
| 20260504232515 | 20 | 177 | 14.5 | 27.4 | 0.00 | 0.00 | 0.00 | 46 | 1006.8 |
| 20260504231520 | 20 | 175 | 16.1 | 25.7 | 0.00 | 0.00 | 0.00 | 46 | 1006.7 |
| 20260504230515 | 20 | 193 | 11.3 | 20.9 | 0.00 | 0.00 | 0.00 | 46 | 1006.6 |
| 20260504225515 | 21 | 215 | 16.1 | 24.1 | 0.00 | 0.00 | 0.00 | 44 | 1006.5 |
| 20260504224515 | 21 | 214 | 14.5 | 27.4 | 0.00 | 0.00 | 0.00 | 44 | 1006.4 |
| 20260504223515 | 21 | 215 | 16.1 | 27.4 | 0.00 | 0.00 | 0.00 | 44 | 1006.4 |
| 20260504222535 | 21 | 214 | 16.1 | 22.5 | 0.00 | 0.00 | 0.00 | 44 | 1006.4 |
| 20260504221535 | 21 | 219 | 14.5 | 22.5 | 0.00 | 0.00 | 0.00 | 44 | 1006.5 |
| 20260504220535 | 21 | 226 | 14.5 | 24.1 | 0.00 | 0.00 | 0.00 | 44 | 1006.7 |
| 20260504215515 | 21 | 226 | 20.9 | 30.6 | 0.00 | 0.00 | 0.00 | 43 | 1006.7 |
| 20260504214515 | 21 | 223 | 17.7 | 30.6 | 0.00 | 0.00 | 0.00 | 43 | 1006.7 |
| 20260504213515 | 21 | 218 | 20.9 | 33.8 | 0.00 | 0.00 | 0.00 | 43 | 1006.7 |
| 20260504212515 | 21 | 221 | 16.1 | 29.0 | 0.00 | 0.00 | 0.00 | 44 | 1006.8 |
| 20260504211515 | 21 | 220 | 14.5 | 33.8 | 0.00 | 0.00 | 0.00 | 45 | 1006.7 |
| 20260504210515 | 21 | 219 | 17.7 | 33.8 | 0.00 | 0.00 | 0.00 | 44 | 1006.8 |
| 20260504205515 | 21 | 222 | 20.9 | 30.6 | 0.00 | 0.00 | 0.00 | 44 | 1007.0 |
| 20260504204515 | 21 | 217 | 17.7 | 29.0 | 0.00 | 0.00 | 0.00 | 44 | 1007.0 |
| 20260504203515 | 21 | 233 | 20.9 | 35.4 | 0.00 | 0.00 | 0.00 | 44 | 1007.1 |
| 20260504202515 | 21 | 223 | 19.3 | 27.4 | 0.00 | 0.00 | 0.00 | 44 | 1007.2 |
| 20260504201515 | 21 | 214 | 16.1 | 22.5 | 0.00 | 0.00 | 0.00 | 46 | 1007.4 |
| 20260504200515 | 21 | 231 | 19.3 | 35.4 | 0.00 | 0.00 | 0.00 | 44 | 1007.5 |
| 20260504195515 | 21 | 227 | 20.9 | 30.6 | 0.00 | 0.00 | 0.00 | 46 | 1007.5 |
| 20260504194515 | 21 | 226 | 22.5 | 33.8 | 0.00 | 0.00 | 0.00 | 45 | 1007.7 |
| 20260504193515 | 20 | 219 | 24.1 | 37.0 | 0.00 | 0.00 | 0.00 | 44 | 1007.7 |
| 20260504192515 | 20 | 224 | 24.1 | 37.0 | 0.00 | 0.00 | 0.00 | 44 | 1007.9 |
| 20260504191535 | 20 | 235 | 20.9 | 35.4 | 0.00 | 0.00 | 0.00 | 43 | 1007.9 |
| 20260504190515 | 21 | 224 | 20.9 | 32.2 | 0.00 | 0.00 | 0.00 | 45 | 1008.0 |
| 20260504185515 | 20 | 233 | 17.7 | 32.2 | 0.00 | 0.00 | 0.00 | 45 | 1008.1 |
| 20260504184515 | 20 | 227 | 17.7 | 37.0 | 0.00 | 0.00 | 0.00 | 46 | 1008.4 |
| 20260504183515 | 20 | 230 | 22.5 | 30.6 | 0.00 | 0.00 | 0.00 | 46 | 1008.5 |
| 20260504182515 | 20 | 227 | 16.1 | 33.8 | 0.00 | 0.00 | 0.00 | 44 | 1008.6 |